Regional Weather Roundup
Issued by NWS

Home | Current Version | Previous Version | Graphics & Text | Print | Product List | Glossary On
Versions: 1 2 3 4 5 6 7 8 9 10 11 12 13 14 15 16 17 18 19 20 21 22 23 24 25 26 27 28 29 30 31 32 33 34 35 36 37 38 39 40 41 42 43 44 45 46 47 48 49 50
000
ASUS43 KIND 201509
RWRIN

WEATHER ROUNDUP FOR INDIANA
NATIONAL WEATHER SERVICE INDIANAPOLIS IN
1000 AM EST SAT JAN 20 2018

NOTE: "FAIR" INDICATES FEW OR NO CLOUDS BELOW 12,000 FEET WITH NO
SIGNIFICANT WEATHER AND/OR OBSTRUCTIONS TO VISIBILITY.

* - STATION DOES NOT REPORT WEATHER SUCH AS PRECIPITATION OR FOG.

+ - STATION NOT QUALITY CONTROLLED BY THE NATIONAL WEATHER SERVICE.
    USE DATA WITH CAUTION...ESPECIALLY DEWPOINT AND RELATIVE
    HUMIDITY OBSERVATIONS.

INZ001>003-010>013-019-020-201600-
NORTHWEST INDIANA

CITY           SKY/WX    TMP DP  RH WIND       PRES   REMARKS
GARY /AIRPORT/ PTSUNNY   36  28  75 SW7       29.95R WCI  30
KNOX *+        FAIR      32  28  86 SW8       29.96R WCI  25
LA PORTE +     FAIR      31  26  83 SW10      29.96R WCI  22
MICHIGAN CITY+ FAIR      34  28  80 SW9       29.95R WCI  26
MONTICELLO +   FAIR      33  26  76 SW13      30.00R WCI  23
RENSSELAER +   FAIR      34  28  80 SW13      29.98R WCI  25
VALPARAISO     FAIR      32  27  81 SW8       29.95R WCI  25

$$

LMZ046-743>745-201600-
SOUTHERN LAKE MICHIGAN

STATION/POSITION TIME  TEMP    WIND        PRES    WAVE
                       AIR SEA DIR/SP/G            HT
                 (UTC) (F)     (DEG/KT/KT) (MB)    (FT)
BURNS HARBOR     1440   35     210/ 10/ 17 1014.2R
MICHIGAN CITY    1440   36     190/ 13/ 16   N/A

$$

INZ004-005-014>016-021>024-201600-
NORTH CENTRAL INDIANA

CITY           SKY/WX    TMP DP  RH WIND       PRES   REMARKS
ELKHART        SUNNY     32  27  80 SW9       29.95R WCI  24
GOSHEN         FAIR      32  26  78 SW14      29.96R WCI  22
LOGANSPORT +   FAIR      32  27  80 SW14      30.01R WCI  22
PERU/GRISSOM   FAIR      34  29  82 SW18      29.99R WCI  23
ROCHESTER +    FAIR      36  30  80 SW12      29.98R WCI  27
SOUTH BEND     FAIR      32  26  78 SW15G22   29.95R WCI  22
WARSAW +       FAIR      34  27  75 SW9       29.97R WCI  26

$$

INZ006>009-017-018-025>027-201600-
NORTHEAST INDIANA

CITY           SKY/WX    TMP DP  RH WIND       PRES   REMARKS
AUBURN +       FAIR     N/A N/A N/A SW10      29.97S
FORT WAYNE     FAIR      34  27  75 SW15      29.99R WCI  24
HUNTINGTON +   FAIR      34  25  69 SW6       30.00R WCI  29
KENDALLVILLE + FAIR      33  26  78 SW10      29.96R WCI  24

$$

INZ028-029-035-036-043>045-051>053-201600-
WEST CENTRAL INDIANA

CITY           SKY/WX    TMP DP  RH WIND       PRES   REMARKS
CRAWFORDSVL +  FAIR      32  26  78 MISG      30.04R
GREENCASTLE +  FAIR      36  23  60 SW6       30.06R WCI  31
LAFAYETTE      FAIR      34  27  75 SW8       30.02R WCI  27
TERRE HAUTE    FAIR      34  23  64 S9        30.07R WCI  27

$$

INZ030>032-037>040-046>048-054>057-064-065-201600-
CENTRAL INDIANA

CITY           SKY/WX    TMP DP  RH WIND       PRES   REMARKS
ANDERSON       SUNNY     32  25  74 S12       30.04R WCI  23
FRANKFORT +    FAIR      35  29  76 SW12G17   30.04R WCI  27
GREENWOOD *+   FAIR      38  26  61 SW9G17    30.06R WCI  31
INDIANAPOLIS   PTSUNNY   37  26  64 SW10      30.06R WCI  30
-EAGLE CREEK   FAIR      36  25  64 SW6       30.05R WCI  31
MARION +       FAIR      33  26  76 SW13      30.02R HAZE    WCI  23
MT COMFORT *+  FAIR      36  28  75 SW12      30.05R WCI  27
SHELBYVILLE    FAIR      33  22  63 S8        30.07R WCI  26
ZIONSVILLE +   FAIR      33  25  72 SW15      30.04R WCI  23

$$

INZ033-034-041-042-049-050-058-059-201600-
EAST CENTRAL INDIANA

CITY           SKY/WX    TMP DP  RH WIND       PRES   REMARKS
MUNCIE         FAIR      35  23  61 SW14      30.02R WCI  26
RICHMOND +     FAIR      32  25  74 SW14      30.06R WCI  22

$$

INZ060-061-067>069-081>083-085>088-201600-
SOUTHWEST INDIANA

CITY           SKY/WX    TMP DP  RH WIND       PRES   REMARKS
EVANSVILLE     FAIR      38  23  55 SW10      30.14R WCI  31
HUNTINGBURG +  FAIR      40  21  46 S13       30.14R WCI  32
WASHINGTON +   FAIR      38  19  45 S9        30.11R WCI  31

$$

INZ062-063-066-070>080-084-089>092-201600-
SOUTH CENTRAL AND SOUTHEAST INDIANA

CITY           SKY/WX    TMP DP  RH WIND       PRES   REMARKS
BATESVILLE *+    N/A    N/A N/A N/A MISG        N/A
BEDFORD +      FAIR      39  19  45 SW9       30.10R WCI  33
BLOOMINGTON    FAIR      38  23  55 SW15G23   30.08R WCI  29
FRENCH LICK *+ FAIR      41  12  30 SW9       30.12R
MADISON *+     FAIR      39  19  45 SW10      30.14R WCI  32
NORTH VERNON + FAIR      34  21  60 S8        30.11R WCI  27
SEYMOUR +      FAIR      39  23  52 SE3       30.11R

$$




USA.gov is the U.S. government's official web portal to all federal, state and local government web resources and services.